| time (UTC) | temp C | wind direction | speed KPH | gust KPH | rain 1hr cm | rain 24hr cm | rain mn cm | humidity % | barometer mb |
| 20260508220218 | 17 | 242 | 9.7 | 17.7 | 0.00 | 0.00 | 0.00 | 33 | 974.8 |
| 20260508215503 | 17 | 242 | 12.9 | 25.7 | 0.00 | 0.00 | 0.00 | 33 | 975.0 |
| 20260508215218 | 17 | 241 | 14.5 | 25.7 | 0.00 | 0.00 | 0.00 | 32 | 974.9 |
| 20260508214503 | 18 | 242 | 11.3 | 20.9 | 0.00 | 0.00 | 0.00 | 32 | 975.1 |
| 20260508214003 | 17 | 243 | 9.7 | 20.9 | 0.00 | 0.00 | 0.00 | 32 | 975.2 |
| 20260508213503 | 18 | 242 | 9.7 | 24.1 | 0.00 | 0.00 | 0.00 | 32 | 975.0 |
| 20260508213003 | 17 | 243 | 11.3 | 27.4 | 0.00 | 0.00 | 0.00 | 30 | 975.2 |
| 20260508212503 | 18 | 246 | 9.7 | 27.4 | 0.00 | 0.00 | 0.00 | 30 | 975.2 |
| 20260508212003 | 17 | 246 | 9.7 | 24.1 | 0.00 | 0.00 | 0.00 | 32 | 975.0 |
| 20260508211716 | 17 | 248 | 11.3 | 27.4 | 0.00 | 0.00 | 0.00 | 30 | 975.1 |
| 20260508211217 | 17 | 243 | 11.3 | 27.4 | 0.00 | 0.00 | 0.00 | 30 | 975.0 |
| 20260508210718 | 18 | 240 | 11.3 | 19.3 | 0.00 | 0.00 | 0.00 | 29 | 975.1 |
| 20260508210004 | 18 | 246 | 8.0 | 24.1 | 0.00 | 0.00 | 0.00 | 29 | 975.3 |
| 20260508205503 | 17 | 244 | 11.3 | 29.0 | 0.00 | 0.00 | 0.00 | 32 | 975.1 |
| 20260508205003 | 18 | 238 | 12.9 | 29.0 | 0.00 | 0.00 | 0.00 | 30 | 975.3 |
| 20260508204503 | 18 | 238 | 9.7 | 22.5 | 0.00 | 0.00 | 0.00 | 29 | 975.1 |
| 20260508204003 | 18 | 242 | 9.7 | 22.5 | 0.00 | 0.00 | 0.00 | 30 | 975.4 |
| 20260508203503 | 17 | 242 | 11.3 | 22.5 | 0.00 | 0.00 | 0.00 | 31 | 975.6 |
| 20260508203003 | 17 | 242 | 12.9 | 25.7 | 0.00 | 0.00 | 0.00 | 30 | 975.5 |
| 20260508202503 | 18 | 244 | 11.3 | 25.7 | 0.00 | 0.00 | 0.00 | 29 | 975.7 |
| 20260508202003 | 17 | 243 | 11.3 | 24.1 | 0.00 | 0.00 | 0.00 | 32 | 975.6 |
| 20260508201503 | 17 | 240 | 9.7 | 24.1 | 0.00 | 0.00 | 0.00 | 31 | 975.6 |
| 20260508201003 | 17 | 243 | 9.7 | 29.0 | 0.00 | 0.00 | 0.00 | 33 | 975.8 |
| 20260508200503 | 17 | 244 | 14.5 | 29.0 | 0.00 | 0.00 | 0.00 | 31 | 975.8 |
| 20260508200003 | 17 | 242 | 12.9 | 25.7 | 0.00 | 0.00 | 0.00 | 31 | 976.0 |
| 20260508195503 | 17 | 242 | 9.7 | 30.6 | 0.00 | 0.00 | 0.00 | 32 | 976.2 |
| 20260508195217 | 17 | 243 | 9.7 | 30.6 | 0.00 | 0.00 | 0.00 | 33 | 976.4 |
| 20260508194503 | 17 | 237 | 11.3 | 27.4 | 0.00 | 0.00 | 0.00 | 32 | 976.1 |
| 20260508194003 | 17 | 234 | 12.9 | 27.4 | 0.00 | 0.00 | 0.00 | 31 | 976.5 |
| 20260508193503 | 17 | 243 | 11.3 | 22.5 | 0.00 | 0.00 | 0.00 | 32 | 976.5 |
| 20260508193003 | 17 | 241 | 11.3 | 29.0 | 0.00 | 0.00 | 0.00 | 33 | 976.5 |
| 20260508192503 | 17 | 239 | 12.9 | 29.0 | 0.00 | 0.00 | 0.00 | 31 | 976.5 |
| 20260508192003 | 17 | 240 | 11.3 | 22.5 | 0.00 | 0.00 | 0.00 | 31 | 976.8 |
| 20260508191503 | 17 | 241 | 11.3 | 20.9 | 0.00 | 0.00 | 0.00 | 32 | 976.6 |
| 20260508191003 | 17 | 241 | 14.5 | 27.4 | 0.00 | 0.00 | 0.00 | 31 | 976.8 |
| 20260508190503 | 16 | 243 | 14.5 | 27.4 | 0.00 | 0.00 | 0.00 | 31 | 976.7 |
| 20260508190217 | 17 | 243 | 12.9 | 27.4 | 0.00 | 0.00 | 0.00 | 32 | 976.7 |
| 20260508185503 | 17 | 238 | 11.3 | 29.0 | 0.00 | 0.00 | 0.00 | 32 | 976.9 |
| 20260508185003 | 16 | 241 | 11.3 | 33.8 | 0.00 | 0.00 | 0.00 | 33 | 976.9 |
| 20260508184504 | 17 | 247 | 9.7 | 33.8 | 0.00 | 0.00 | 0.00 | 31 | 977.0 |
| 20260508184003 | 16 | 236 | 11.3 | 32.2 | 0.00 | 0.00 | 0.00 | 33 | 977.0 |
| 20260508183503 | 16 | 235 | 14.5 | 32.2 | 0.00 | 0.00 | 0.00 | 31 | 977.2 |
| 20260508183003 | 16 | 236 | 11.3 | 22.5 | 0.00 | 0.00 | 0.00 | 32 | 977.2 |
| 20260508182503 | 16 | 237 | 9.7 | 27.4 | 0.00 | 0.00 | 0.00 | 32 | 977.3 |
| 20260508182003 | 16 | 243 | 11.3 | 27.4 | 0.00 | 0.00 | 0.00 | 31 | 977.2 |
| 20260508181503 | 16 | 242 | 9.7 | 30.6 | 0.00 | 0.00 | 0.00 | 32 | 977.3 |
| 20260508181003 | 16 | 243 | 9.7 | 30.6 | 0.00 | 0.00 | 0.00 | 31 | 977.2 |
| 20260508180717 | 16 | 246 | 8.0 | 20.9 | 0.00 | 0.00 | 0.00 | 33 | 977.3 |
| 20260508180003 | 16 | 248 | 8.0 | 22.5 | 0.00 | 0.00 | 0.00 | 33 | 977.6 |
| 20260508175717 | 16 | 245 | 8.0 | 22.5 | 0.00 | 0.00 | 0.00 | 31 | 977.3 |
| 20260508175218 | 16 | 237 | 9.7 | 19.3 | 0.00 | 0.00 | 0.00 | 31 | 977.5 |
| 20260508174503 | 16 | 234 | 11.3 | 25.7 | 0.00 | 0.00 | 0.00 | 31 | 977.9 |
| 20260508174003 | 15 | 234 | 12.9 | 25.7 | 0.00 | 0.00 | 0.00 | 32 | 977.8 |
| 20260508173503 | 16 | 235 | 9.7 | 25.7 | 0.00 | 0.00 | 0.00 | 30 | 978.1 |
| 20260508173003 | 15 | 240 | 8.0 | 25.7 | 0.00 | 0.00 | 0.00 | 31 | 977.9 |
| 20260508172503 | 16 | 253 | 6.4 | 14.5 | 0.00 | 0.00 | 0.00 | 33 | 978.1 |
| 20260508172003 | 16 | 251 | 6.4 | 22.5 | 0.00 | 0.00 | 0.00 | 33 | 978.3 |
| 20260508171503 | 16 | 248 | 6.4 | 22.5 | 0.00 | 0.00 | 0.00 | 34 | 978.3 |
| 20260508171003 | 16 | 246 | 6.4 | 20.9 | 0.00 | 0.00 | 0.00 | 32 | 978.5 |
| 20260508170717 | 15 | 237 | 6.4 | 20.9 | 0.00 | 0.00 | 0.00 | 33 | 978.5 |
| 20260508170218 | 15 | 235 | 8.0 | 20.9 | 0.00 | 0.00 | 0.00 | 30 | 978.4 |
| 20260508165503 | 15 | 232 | 11.3 | 25.7 | 0.00 | 0.00 | 0.00 | 31 | 978.6 |
| 20260508165004 | 15 | 236 | 11.3 | 25.7 | 0.00 | 0.00 | 0.00 | 32 | 978.7 |
| 20260508164503 | 15 | 239 | 11.3 | 22.5 | 0.00 | 0.00 | 0.00 | 32 | 978.9 |
| 20260508164003 | 15 | 237 | 8.0 | 20.9 | 0.00 | 0.00 | 0.00 | 35 | 978.9 |
| 20260508163503 | 14 | 238 | 9.7 | 22.5 | 0.00 | 0.00 | 0.00 | 35 | 978.8 |
| 20260508163003 | 13 | 235 | 9.7 | 22.5 | 0.00 | 0.00 | 0.00 | 36 | 979.1 |
| 20260508162503 | 14 | 235 | 11.3 | 22.5 | 0.00 | 0.00 | 0.00 | 35 | 978.8 |
| 20260508162003 | 14 | 242 | 9.7 | 24.1 | 0.00 | 0.00 | 0.00 | 36 | 979.0 |
| 20260508161503 | 15 | 240 | 6.4 | 24.1 | 0.00 | 0.00 | 0.00 | 33 | 978.9 |
| 20260508161003 | 15 | 221 | 4.8 | 11.3 | 0.00 | 0.00 | 0.00 | 38 | 979.1 |
| 20260508160503 | 15 | 229 | 6.4 | 12.9 | 0.00 | 0.00 | 0.00 | 36 | 979.0 |
| 20260508160003 | 14 | 238 | 8.0 | 22.5 | 0.00 | 0.00 | 0.00 | 39 | 979.2 |
| 20260508155503 | 13 | 235 | 8.0 | 22.5 | 0.00 | 0.00 | 0.00 | 36 | 979.4 |
| 20260508155217 | 14 | 233 | 8.0 | 22.5 | 0.00 | 0.00 | 0.00 | 36 | 979.4 |
| 20260508154503 | 14 | 212 | 4.8 | 9.7 | 0.00 | 0.00 | 0.00 | 42 | 979.4 |
| 20260508154217 | 14 | 211 | 4.8 | 8.0 | 0.00 | 0.00 | 0.00 | 47 | 979.3 |
| 20260508153503 | 13 | 233 | 4.8 | 11.3 | 0.00 | 0.00 | 0.00 | 45 | 979.4 |
| 20260508153003 | 13 | 292 | 3.2 | 16.1 | 0.00 | 0.00 | 0.00 | 44 | 979.5 |
| 20260508152503 | 13 | 338 | 3.2 | 16.1 | 0.00 | 0.00 | 0.00 | 41 | 979.3 |
| 20260508152003 | 13 | 256 | 4.8 | 16.1 | 0.00 | 0.00 | 0.00 | 45 | 979.6 |
| 20260508151503 | 13 | 249 | 6.4 | 16.1 | 0.00 | 0.00 | 0.00 | 42 | 979.6 |
| 20260508151003 | 13 | 251 | 4.8 | 9.7 | 0.00 | 0.00 | 0.00 | 43 | 979.6 |
| 20260508150503 | 12 | 246 | 6.4 | 16.1 | 0.00 | 0.00 | 0.00 | 45 | 979.6 |
| 20260508150003 | 12 | 236 | 4.8 | 16.1 | 0.00 | 0.00 | 0.00 | 43 | 979.4 |
| 20260508145503 | 12 | 232 | 4.8 | 20.9 | 0.00 | 0.00 | 0.00 | 44 | 979.5 |
| 20260508145003 | 12 | 226 | 4.8 | 20.9 | 0.00 | 0.00 | 0.00 | 42 | 979.8 |
| 20260508144503 | 12 | 185 | 3.2 | 8.0 | 0.00 | 0.00 | 0.00 | 47 | 979.6 |
| 20260508144003 | 12 | 24 | 3.2 | 9.7 | 0.00 | 0.00 | 0.00 | 48 | 979.7 |
| 20260508143503 | 11 | 27 | 4.8 | 11.3 | 0.00 | 0.00 | 0.00 | 50 | 979.8 |
| 20260508143217 | 11 | 31 | 4.8 | 11.3 | 0.00 | 0.00 | 0.00 | 53 | 979.8 |
| 20260508142503 | 12 | 54 | 3.2 | 11.3 | 0.00 | 0.00 | 0.00 | 51 | 979.7 |
| 20260508142217 | 11 | 53 | 3.2 | 6.4 | 0.00 | 0.00 | 0.00 | 51 | 979.7 |
| 20260508141718 | 11 | 10 | 3.2 | 11.3 | 0.00 | 0.00 | 0.00 | 51 | 980.0 |
| 20260508141003 | 12 | 309 | 3.2 | 11.3 | 0.00 | 0.00 | 0.00 | 49 | 980.0 |
| 20260508140718 | 13 | 259 | 3.2 | 6.4 | 0.00 | 0.00 | 0.00 | 50 | 979.9 |
| 20260508140003 | 12 | 171 | 1.6 | 8.0 | 0.00 | 0.00 | 0.00 | 56 | 979.9 |
| 20260508135503 | 11 | 152 | 3.2 | 8.0 | 0.00 | 0.00 | 0.00 | 61 | 980.1 |
| 20260508135003 | 11 | 204 | 3.2 | 6.4 | 0.00 | 0.00 | 0.00 | 62 | 980.0 |
| 20260508134717 | 11 | 246 | 1.6 | 6.4 | 0.00 | 0.00 | 0.00 | 60 | 980.0 |
| 20260508134216 | 11 | 19 | 1.6 | 4.8 | 0.00 | 0.00 | 0.00 | 64 | 980.2 |
| 20260508133718 | 11 | 21 | 1.6 | 6.4 | 0.00 | 0.00 | 0.00 | 62 | 980.0 |
| 20260508133217 | 10 | 19 | 3.2 | 8.0 | 0.00 | 0.00 | 0.00 | 69 | 980.3 |
| 20260508132503 | 10 | 79 | 3.2 | 8.0 | 0.00 | 0.00 | 0.00 | 66 | 980.2 |
| 20260508132003 | 10 | 209 | 1.6 | 6.4 | 0.00 | 0.00 | 0.00 | 67 | 980.0 |
| 20260508131503 | 10 | 236 | 1.6 | 4.8 | 0.00 | 0.00 | 0.00 | 68 | 980.0 |
| 20260508131003 | 9 | 93 | 1.6 | 4.8 | 0.00 | 0.00 | 0.00 | 71 | 980.1 |
| 20260508130717 | 9 | 69 | 1.6 | 4.8 | 0.00 | 0.00 | 0.00 | 73 | 980.3 |
| 20260508130003 | 9 | 219 | 1.6 | 6.4 | 0.00 | 0.00 | 0.00 | 74 | 980.3 |
| 20260508125717 | 8 | 219 | 3.2 | 6.4 | 0.00 | 0.00 | 0.00 | 76 | 980.2 |
| 20260508125003 | 8 | 207 | 1.6 | 4.8 | 0.00 | 0.00 | 0.00 | 79 | 980.1 |
| 20260508124503 | 7 | 241 | 1.6 | 4.8 | 0.00 | 0.00 | 0.00 | 81 | 980.0 |
| 20260508124218 | 7 | 15 | 0.0 | 4.8 | 0.00 | 0.00 | 0.00 | 83 | 980.0 |
| 20260508123503 | 7 | 20 | 0.0 | 3.2 | 0.00 | 0.00 | 0.00 | 83 | 980.1 |
| 20260508123218 | 7 | 93 | 1.6 | 3.2 | 0.00 | 0.00 | 0.00 | 84 | 980.2 |
| 20260508122503 | 7 | 90 | 0.0 | 3.2 | 0.00 | 0.00 | 0.00 | 86 | 979.9 |
| 20260508122003 | 6 | 44 | 0.0 | 3.2 | 0.00 | 0.00 | 0.00 | 87 | 980.0 |
| 20260508121503 | 6 | 88 | 0.0 | 3.2 | 0.00 | 0.00 | 0.00 | 88 | 979.9 |
| 20260508121003 | 6 | 58 | 0.0 | 3.2 | 0.00 | 0.00 | 0.00 | 90 | 979.9 |
| 20260508120717 | 6 | 29 | 0.0 | 3.2 | 0.00 | 0.00 | 0.00 | 91 | 979.8 |
| 20260508120218 | 6 | 37 | 0.0 | 3.2 | 0.00 | 0.00 | 0.00 | 92 | 979.6 |
| 20260508115503 | 6 | 50 | 0.0 | 1.6 | 0.00 | 0.00 | 0.00 | 92 | 979.8 |
| 20260508115003 | 5 | 46 | 0.0 | 1.6 | 0.00 | 0.00 | 0.00 | 92 | 979.7 |
| 20260508114717 | 5 | 46 | 0.0 | 1.6 | 0.00 | 0.00 | 0.00 | 93 | 979.7 |
| 20260508114003 | 4 | 0 | 0.0 | 0.0 | 0.00 | 0.00 | 0.00 | 94 | 979.8 |
| 20260508113503 | 3 | 0 | 0.0 | 0.0 | 0.00 | 0.00 | 0.00 | 93 | 979.5 |
| 20260508113004 | 3 | 0 | 0.0 | 0.0 | 0.00 | 0.00 | 0.00 | 93 | 979.5 |
| 20260508112503 | 3 | 0 | 0.0 | 0.0 | 0.00 | 0.00 | 0.00 | 93 | 979.5 |
| 20260508112003 | 3 | 234 | 0.0 | 1.6 | 0.00 | 0.00 | 0.00 | 93 | 979.3 |
| 20260508111503 | 2 | 52 | 0.0 | 1.6 | 0.00 | 0.00 | 0.00 | 94 | 979.2 |
| 20260508111218 | 2 | 40 | 0.0 | 1.6 | 0.00 | 0.00 | 0.00 | 94 | 979.5 |
| 20260508110717 | 2 | 37 | 0.0 | 1.6 | 0.00 | 0.00 | 0.00 | 94 | 979.2 |
| 20260508110217 | 2 | 257 | 0.0 | 1.6 | 0.00 | 0.00 | 0.00 | 94 | 979.2 |
| 20260508105503 | 2 | 63 | 0.0 | 3.2 | 0.00 | 0.00 | 0.00 | 94 | 979.1 |
| 20260508105003 | 2 | 67 | 0.0 | 3.2 | 0.00 | 0.00 | 0.00 | 94 | 979.1 |
| 20260508104503 | 2 | 0 | 0.0 | 0.0 | 0.00 | 0.00 | 0.00 | 94 | 979.4 |
| 20260508104003 | 2 | 255 | 0.0 | 1.6 | 0.00 | 0.00 | 0.00 | 94 | 979.2 |
| 20260508103503 | 1 | 251 | 0.0 | 1.6 | 0.00 | 0.00 | 0.00 | 94 | 979.1 |
| 20260508103003 | 1 | 248 | 0.0 | 1.6 | 0.00 | 0.00 | 0.00 | 94 | 979.0 |
| 20260508102503 | 2 | 50 | 0.0 | 1.6 | 0.00 | 0.00 | 0.00 | 94 | 979.2 |
| 20260508102003 | 2 | 50 | 0.0 | 1.6 | 0.00 | 0.00 | 0.00 | 94 | 979.1 |
| 20260508101503 | 2 | 53 | 0.0 | 1.6 | 0.00 | 0.00 | 0.00 | 94 | 978.8 |
| 20260508101217 | 2 | 0 | 0.0 | 0.0 | 0.00 | 0.00 | 0.00 | 94 | 979.2 |
| 20260508100503 | 2 | 240 | 0.0 | 1.6 | 0.00 | 0.00 | 0.00 | 94 | 979.0 |
| 20260508100003 | 2 | 240 | 0.0 | 1.6 | 0.00 | 0.00 | 0.00 | 93 | 978.8 |
| 20260508095503 | 2 | 0 | 0.0 | 0.0 | 0.00 | 0.00 | 0.00 | 93 | 979.1 |
| 20260508095003 | 2 | 0 | 0.0 | 0.0 | 0.00 | 0.00 | 0.00 | 93 | 979.0 |
| 20260508094503 | 2 | 0 | 0.0 | 0.0 | 0.00 | 0.00 | 0.00 | 93 | 979.0 |
| 20260508094003 | 2 | 0 | 0.0 | 0.0 | 0.00 | 0.00 | 0.00 | 92 | 979.1 |
| 20260508093503 | 2 | 0 | 0.0 | 0.0 | 0.00 | 0.00 | 0.00 | 92 | 979.2 |
| 20260508093003 | 2 | 272 | 0.0 | 1.6 | 0.00 | 0.00 | 0.00 | 92 | 979.0 |
| 20260508092718 | 2 | 253 | 0.0 | 1.6 | 0.00 | 0.00 | 0.00 | 92 | 978.9 |
| 20260508092003 | 2 | 234 | 0.0 | 1.6 | 0.00 | 0.00 | 0.00 | 92 | 979.2 |
| 20260508091503 | 2 | 0 | 0.0 | 0.0 | 0.00 | 0.00 | 0.00 | 91 | 979.1 |
| 20260508091003 | 3 | 0 | 0.0 | 0.0 | 0.00 | 0.00 | 0.00 | 91 | 979.2 |
| 20260508090503 | 3 | 0 | 0.0 | 0.0 | 0.00 | 0.00 | 0.00 | 91 | 979.2 |
| 20260508090003 | 3 | 0 | 0.0 | 0.0 | 0.00 | 0.00 | 0.00 | 90 | 979.3 |
| 20260508085718 | 3 | 39 | 0.0 | 1.6 | 0.00 | 0.00 | 0.00 | 91 | 979.4 |
| 20260508085003 | 3 | 39 | 0.0 | 1.6 | 0.00 | 0.00 | 0.00 | 90 | 979.2 |
| 20260508084718 | 3 | 0 | 0.0 | 0.0 | 0.00 | 0.00 | 0.00 | 90 | 979.1 |
| 20260508084003 | 3 | 21 | 0.0 | 1.6 | 0.00 | 0.00 | 0.00 | 90 | 979.1 |
| 20260508083503 | 3 | 252 | 0.0 | 1.6 | 0.00 | 0.00 | 0.00 | 90 | 979.1 |
| 20260508083003 | 3 | 312 | 0.0 | 4.8 | 0.00 | 0.00 | 0.00 | 90 | 979.3 |
| 20260508082503 | 3 | 19 | 0.0 | 6.4 | 0.00 | 0.00 | 0.00 | 90 | 979.3 |
| 20260508082003 | 4 | 28 | 0.0 | 6.4 | 0.00 | 0.00 | 0.00 | 88 | 979.3 |
| 20260508081504 | 5 | 20 | 0.0 | 4.8 | 0.00 | 0.00 | 0.00 | 86 | 979.2 |
| 20260508081218 | 5 | 286 | 0.0 | 1.6 | 0.00 | 0.00 | 0.00 | 85 | 979.4 |
| 20260508080717 | 5 | 319 | 0.0 | 1.6 | 0.00 | 0.00 | 0.00 | 85 | 979.2 |
| 20260508080003 | 5 | 297 | 0.0 | 1.6 | 0.00 | 0.00 | 0.00 | 84 | 979.1 |
| 20260508075503 | 5 | 297 | 0.0 | 1.6 | 0.00 | 0.00 | 0.00 | 84 | 979.3 |
| 20260508075003 | 5 | 26 | 0.0 | 1.6 | 0.00 | 0.00 | 0.00 | 83 | 979.3 |
| 20260508074503 | 5 | 340 | 0.0 | 3.2 | 0.00 | 0.00 | 0.00 | 81 | 979.1 |
| 20260508074003 | 6 | 351 | 0.0 | 3.2 | 0.00 | 0.00 | 0.00 | 80 | 979.5 |
| 20260508073503 | 6 | 323 | 1.6 | 3.2 | 0.00 | 0.00 | 0.00 | 79 | 979.3 |
| 20260508073003 | 6 | 192 | 0.0 | 3.2 | 0.00 | 0.00 | 0.00 | 79 | 979.5 |
| 20260508072503 | 6 | 192 | 0.0 | 3.2 | 0.00 | 0.00 | 0.00 | 80 | 979.3 |
| 20260508072003 | 6 | 248 | 0.0 | 1.6 | 0.00 | 0.00 | 0.00 | 79 | 979.6 |
| 20260508071503 | 6 | 0 | 0.0 | 0.0 | 0.00 | 0.00 | 0.00 | 78 | 979.6 |
| 20260508071003 | 6 | 129 | 0.0 | 1.6 | 0.00 | 0.00 | 0.00 | 78 | 979.7 |
| 20260508070503 | 6 | 110 | 0.0 | 1.6 | 0.00 | 0.00 | 0.00 | 77 | 979.7 |
| 20260508070003 | 6 | 251 | 0.0 | 1.6 | 0.00 | 0.00 | 0.00 | 77 | 979.5 |
| 20260508065503 | 6 | 254 | 0.0 | 3.2 | 0.00 | 0.00 | 0.00 | 76 | 979.8 |
| 20260508065003 | 6 | 339 | 0.0 | 3.2 | 0.00 | 0.00 | 0.00 | 76 | 979.6 |
| 20260508064717 | 7 | 59 | 0.0 | 3.2 | 0.00 | 0.00 | 0.00 | 75 | 979.4 |
| 20260508064003 | 7 | 326 | 0.0 | 3.2 | 0.00 | 0.00 | 0.00 | 75 | 979.5 |
| 20260508063717 | 7 | 269 | 0.0 | 3.2 | 0.00 | 0.00 | 0.00 | 74 | 979.7 |
| 20260508063218 | 7 | 262 | 0.0 | 3.2 | 0.00 | 0.00 | 0.00 | 75 | 979.5 |
| 20260508062503 | 7 | 49 | 1.6 | 4.8 | 0.00 | 0.00 | 0.00 | 74 | 979.6 |
| 20260508062003 | 7 | 38 | 1.6 | 4.8 | 0.00 | 0.00 | 0.00 | 73 | 979.6 |
| 20260508061503 | 7 | 282 | 0.0 | 3.2 | 0.00 | 0.00 | 0.00 | 72 | 979.6 |
| 20260508061003 | 7 | 279 | 0.0 | 3.2 | 0.00 | 0.00 | 0.00 | 73 | 979.5 |
| 20260508060503 | 7 | 40 | 0.0 | 1.6 | 0.00 | 0.00 | 0.00 | 73 | 979.6 |
| 20260508060003 | 7 | 258 | 0.0 | 1.6 | 0.00 | 0.00 | 0.00 | 73 | 979.6 |
| 20260508055503 | 7 | 268 | 0.0 | 1.6 | 0.00 | 0.00 | 0.00 | 72 | 979.8 |
| 20260508055218 | 7 | 275 | 0.0 | 1.6 | 0.00 | 0.00 | 0.00 | 71 | 979.7 |
| 20260508054503 | 7 | 0 | 0.0 | 0.0 | 0.00 | 0.00 | 0.00 | 71 | 979.6 |
| 20260508054003 | 7 | 274 | 0.0 | 1.6 | 0.00 | 0.00 | 0.00 | 71 | 979.8 |
| 20260508053503 | 7 | 279 | 0.0 | 1.6 | 0.00 | 0.00 | 0.00 | 71 | 979.8 |
| 20260508053003 | 7 | 263 | 0.0 | 3.2 | 0.00 | 0.00 | 0.00 | 71 | 979.7 |
| 20260508052503 | 7 | 259 | 0.0 | 3.2 | 0.00 | 0.00 | 0.00 | 71 | 979.8 |
| 20260508052003 | 7 | 279 | 0.0 | 1.6 | 0.00 | 0.00 | 0.00 | 70 | 979.7 |
| 20260508051503 | 7 | 308 | 0.0 | 3.2 | 0.00 | 0.00 | 0.00 | 70 | 979.7 |
| 20260508051003 | 7 | 304 | 0.0 | 3.2 | 0.00 | 0.00 | 0.00 | 70 | 979.7 |
| 20260508050716 | 7 | 251 | 0.0 | 4.8 | 0.00 | 0.00 | 0.00 | 70 | 979.8 |
| 20260508050003 | 7 | 222 | 0.0 | 4.8 | 0.00 | 0.00 | 0.00 | 70 | 979.6 |
| 20260508045716 | 7 | 196 | 0.0 | 3.2 | 0.00 | 0.00 | 0.00 | 70 | 979.7 |
| 20260508045003 | 7 | 240 | 0.0 | 3.2 | 0.00 | 0.00 | 0.00 | 70 | 979.8 |
| 20260508044504 | 7 | 298 | 0.0 | 3.2 | 0.00 | 0.00 | 0.00 | 70 | 979.5 |
| 20260508044003 | 7 | 305 | 0.0 | 3.2 | 0.00 | 0.00 | 0.00 | 68 | 979.5 |
| 20260508043503 | 7 | 102 | 0.0 | 1.6 | 0.00 | 0.00 | 0.00 | 69 | 979.7 |
| 20260508043003 | 7 | 3 | 0.0 | 1.6 | 0.00 | 0.00 | 0.00 | 68 | 979.6 |
| 20260508042503 | 7 | 318 | 0.0 | 1.6 | 0.00 | 0.00 | 0.00 | 66 | 979.7 |
| 20260508042003 | 7 | 325 | 0.0 | 1.6 | 0.00 | 0.00 | 0.00 | 65 | 979.9 |
| 20260508041718 | 8 | 325 | 0.0 | 1.6 | 0.00 | 0.00 | 0.00 | 65 | 979.7 |
| 20260508041003 | 8 | 262 | 0.0 | 3.2 | 0.00 | 0.00 | 0.00 | 64 | 979.8 |
| 20260508040503 | 8 | 253 | 0.0 | 3.2 | 0.00 | 0.00 | 0.00 | 64 | 979.7 |
| 20260508040004 | 8 | 308 | 0.0 | 3.2 | 0.00 | 0.00 | 0.00 | 64 | 979.4 |
| 20260508035503 | 8 | 331 | 0.0 | 3.2 | 0.00 | 0.00 | 0.00 | 64 | 979.8 |
| 20260508035003 | 8 | 342 | 0.0 | 3.2 | 0.00 | 0.00 | 0.00 | 63 | 979.7 |
| 20260508034503 | 8 | 1 | 0.0 | 3.2 | 0.00 | 0.00 | 0.00 | 61 | 979.8 |
| 20260508034003 | 8 | 263 | 0.0 | 4.8 | 0.00 | 0.00 | 0.00 | 61 | 979.7 |
| 20260508033718 | 9 | 261 | 1.6 | 4.8 | 0.00 | 0.00 | 0.00 | 61 | 979.6 |
| 20260508033003 | 9 | 244 | 1.6 | 6.4 | 0.00 | 0.00 | 0.00 | 59 | 979.7 |
| 20260508032503 | 9 | 233 | 0.0 | 6.4 | 0.00 | 0.00 | 0.00 | 57 | 979.7 |
| 20260508032003 | 9 | 199 | 0.0 | 6.4 | 0.00 | 0.00 | 0.00 | 57 | 979.7 |
| 20260508031503 | 9 | 156 | 0.0 | 4.8 | 0.00 | 0.00 | 0.00 | 56 | 979.7 |
| 20260508031003 | 9 | 271 | 0.0 | 3.2 | 0.00 | 0.00 | 0.00 | 55 | 979.7 |
| 20260508030503 | 9 | 290 | 0.0 | 3.2 | 0.00 | 0.00 | 0.00 | 54 | 979.7 |
| 20260508030003 | 9 | 161 | 0.0 | 3.2 | 0.00 | 0.00 | 0.00 | 54 | 979.8 |
| 20260508025503 | 9 | 246 | 0.0 | 3.2 | 0.00 | 0.00 | 0.00 | 54 | 979.6 |
| 20260508025003 | 9 | 197 | 0.0 | 3.2 | 0.00 | 0.00 | 0.00 | 53 | 979.8 |
| 20260508024503 | 10 | 169 | 0.0 | 3.2 | 0.00 | 0.00 | 0.00 | 52 | 979.7 |
| 20260508024003 | 10 | 262 | 0.0 | 1.6 | 0.00 | 0.00 | 0.00 | 52 | 979.7 |
| 20260508023503 | 10 | 274 | 0.0 | 3.2 | 0.00 | 0.00 | 0.00 | 51 | 979.8 |
| 20260508023003 | 10 | 275 | 0.0 | 3.2 | 0.00 | 0.00 | 0.00 | 51 | 980.0 |
| 20260508022503 | 10 | 46 | 0.0 | 3.2 | 0.00 | 0.00 | 0.00 | 51 | 979.7 |
| 20260508022003 | 10 | 209 | 0.0 | 3.2 | 0.00 | 0.00 | 0.00 | 50 | 979.7 |
| 20260508021503 | 10 | 221 | 1.6 | 3.2 | 0.00 | 0.00 | 0.00 | 50 | 979.7 |
| 20260508021218 | 10 | 227 | 1.6 | 3.2 | 0.00 | 0.00 | 0.00 | 49 | 979.6 |
| 20260508020717 | 10 | 224 | 0.0 | 3.2 | 0.00 | 0.00 | 0.00 | 48 | 979.8 |
| 20260508020003 | 10 | 219 | 3.2 | 9.7 | 0.00 | 0.00 | 0.00 | 48 | 979.8 |
| 20260508015503 | 10 | 229 | 4.8 | 12.9 | 0.00 | 0.00 | 0.00 | 47 | 979.6 |
| 20260508015004 | 10 | 234 | 4.8 | 14.5 | 0.00 | 0.00 | 0.00 | 45 | 979.8 |
| 20260508014503 | 10 | 226 | 3.2 | 14.5 | 0.00 | 0.00 | 0.00 | 44 | 979.7 |
| 20260508014003 | 10 | 224 | 3.2 | 9.7 | 0.00 | 0.00 | 0.00 | 44 | 979.6 |
| 20260508013503 | 10 | 230 | 4.8 | 9.7 | 0.00 | 0.00 | 0.00 | 43 | 979.8 |
| 20260508013003 | 10 | 236 | 3.2 | 9.7 | 0.00 | 0.00 | 0.00 | 44 | 979.5 |
| 20260508012503 | 10 | 248 | 1.6 | 6.4 | 0.00 | 0.00 | 0.00 | 44 | 979.6 |
| 20260508012003 | 10 | 250 | 1.6 | 6.4 | 0.00 | 0.00 | 0.00 | 42 | 979.3 |
| 20260508011503 | 10 | 241 | 1.6 | 4.8 | 0.00 | 0.00 | 0.00 | 43 | 979.1 |
| 20260508011003 | 10 | 239 | 1.6 | 6.4 | 0.00 | 0.00 | 0.00 | 43 | 979.2 |
| 20260508010717 | 10 | 241 | 1.6 | 8.0 | 0.00 | 0.00 | 0.00 | 43 | 979.3 |
| 20260508010003 | 10 | 321 | 1.6 | 8.0 | 0.00 | 0.00 | 0.00 | 42 | 979.3 |
| 20260508005503 | 10 | 15 | 0.0 | 3.2 | 0.00 | 0.00 | 0.00 | 42 | 979.3 |
| 20260508005003 | 10 | 321 | 1.6 | 4.8 | 0.00 | 0.00 | 0.00 | 42 | 979.2 |
| 20260508004717 | 10 | 281 | 1.6 | 4.8 | 0.00 | 0.00 | 0.00 | 42 | 979.0 |
| 20260508004003 | 11 | 244 | 1.6 | 4.8 | 0.00 | 0.00 | 0.00 | 41 | 979.3 |
| 20260508003503 | 11 | 266 | 1.6 | 4.8 | 0.00 | 0.00 | 0.00 | 40 | 979.1 |
| 20260508003003 | 11 | 283 | 1.6 | 4.8 | 0.00 | 0.00 | 0.00 | 41 | 979.0 |
| 20260508002503 | 11 | 278 | 1.6 | 6.4 | 0.00 | 0.00 | 0.00 | 40 | 979.0 |
| 20260508002003 | 11 | 270 | 1.6 | 6.4 | 0.00 | 0.00 | 0.00 | 40 | 978.8 |
| 20260508001503 | 11 | 258 | 3.2 | 6.4 | 0.00 | 0.00 | 0.00 | 40 | 978.9 |
| 20260508001003 | 11 | 255 | 3.2 | 8.0 | 0.00 | 0.00 | 0.00 | 39 | 979.1 |
| 20260508000503 | 11 | 249 | 4.8 | 8.0 | 0.00 | 0.00 | 0.00 | 39 | 979.0 |
| 20260508000003 | 11 | 245 | 6.4 | 12.9 | 0.00 | 0.00 | 0.00 | 39 | 979.0 |
| 20260507235718 | 11 | 244 | 6.4 | 12.9 | 0.00 | 0.00 | 0.00 | 39 | 979.1 |
| 20260507235217 | 11 | 240 | 4.8 | 12.9 | 0.00 | 0.00 | 0.00 | 38 | 979.1 |
| 20260507234503 | 11 | 240 | 4.8 | 16.1 | 0.00 | 0.00 | 0.00 | 39 | 978.9 |
| 20260507234003 | 11 | 247 | 6.4 | 17.7 | 0.00 | 0.00 | 0.00 | 38 | 978.9 |
| 20260507233718 | 11 | 247 | 4.8 | 17.7 | 0.00 | 0.00 | 0.00 | 38 | 979.1 |
| 20260507233217 | 11 | 244 | 6.4 | 17.7 | 0.00 | 0.00 | 0.00 | 38 | 978.9 |
| 20260507232503 | 11 | 245 | 8.0 | 22.5 | 0.00 | 0.00 | 0.00 | 38 | 979.1 |
| 20260507232217 | 11 | 243 | 8.0 | 22.5 | 0.00 | 0.00 | 0.00 | 38 | 979.0 |
| 20260507231503 | 11 | 233 | 6.4 | 20.9 | 0.00 | 0.00 | 0.00 | 39 | 979.1 |
| 20260507231003 | 11 | 236 | 6.4 | 20.9 | 0.00 | 0.00 | 0.00 | 39 | 979.1 |
| 20260507230503 | 11 | 238 | 8.0 | 17.7 | 0.00 | 0.00 | 0.00 | 37 | 979.2 |
| 20260507230003 | 11 | 241 | 8.0 | 17.7 | 0.00 | 0.00 | 0.00 | 37 | 979.2 |
| 20260507225503 | 12 | 244 | 6.4 | 17.7 | 0.00 | 0.00 | 0.00 | 38 | 979.2 |
| 20260507225217 | 12 | 238 | 4.8 | 17.7 | 0.00 | 0.00 | 0.00 | 37 | 979.1 |
| 20260507224504 | 12 | 236 | 6.4 | 22.5 | 0.00 | 0.00 | 0.00 | 36 | 979.3 |
| 20260507224004 | 12 | 236 | 8.0 | 22.5 | 0.00 | 0.00 | 0.00 | 37 | 979.4 |
| 20260507223503 | 12 | 241 | 6.4 | 17.7 | 0.00 | 0.00 | 0.00 | 36 | 979.5 |
| 20260507223217 | 13 | 252 | 4.8 | 17.7 | 0.00 | 0.00 | 0.00 | 34 | 979.4 |
| 20260507222503 | 13 | 257 | 6.4 | 14.5 | 0.00 | 0.00 | 0.00 | 36 | 979.2 |
| 20260507222003 | 12 | 247 | 6.4 | 16.1 | 0.00 | 0.00 | 0.00 | 37 | 979.4 |
| 20260507221503 | 12 | 242 | 4.8 | 16.1 | 0.00 | 0.00 | 0.00 | 37 | 979.1 |
| 20260507221217 | 12 | 245 | 4.8 | 14.5 | 0.00 | 0.00 | 0.00 | 36 | 979.4 |
| 20260507220503 | 12 | 265 | 6.4 | 12.9 | 0.00 | 0.00 | 0.00 | 37 | 979.5 |